Weather History for KCVG - December, 2010

Change the Weather History Date:

Saturday, December 4, 2010

  Actual Average Record
Temperature  
Mean Temperature 29 °F 38 °F  
Max Temperature 32 °F 45 °F 72 °F (1998)
Min Temperature 26 °F 30 °F 10 °F (1991)
Degree Days  
Heating Degree Days 36 28  
Month to date heating degree days 137 108  
Since 1 July heating degree days 1007 1068  
Cooling Degree Days 0 0  
Month to date cooling degree days 0 0  
Year to date cooling degree days 1481 1121  
Moisture  
Dew Point 26 °F    
Average Humidity 81    
Maximum Humidity 92    
Minimum Humidity 69    
Precipitation  
Precipitation 0.23 in 0.12 in 2.36 in (1880)
Month to date precipitation 0.29 0.44  
Year to date precipitation 35.19 39.59  
Snow  
Snow 3.20 in 0.10 in 3.50 in (1898)
Month to date snowfall 3.8 0.4  
Since 1 July snowfall 4.0 1.2  
Snow Depth T in    
Sea Level Pressure  
Sea Level Pressure 30.02 in    
Wind  
Wind Speed 9 mph (NNE)    
Max Wind Speed 16 mph    
Max Gust Speed 20 mph    
Visibility 2 miles    
Events Fog , Snow    
T = Trace of Precipitation, MM = Missing Value Source: NWS Daily Summary

Daily Weather History Graph

Daily Weather History Graph

Search for Another Location

Airport or City:

Trip Planner

Search our weather history database for the weather conditions in past years. The results will help you decide how hot, cold, wet, or windy it might be!

Date:

Astronomy

Dec. 04, 2010 Rise Set
Actual Time 7:41 AM EST 5:16 PM EST
Civil Twilight 7:11 AM EST 5:45 PM EST
Nautical Twilight 6:38 AM EST 6:19 PM EST
Astronomical Twilight 6:06 AM EST 6:51 PM EST
Moon 6:37 AM EST (12/4) 4:18 PM EST (12/4)
Length of Visible Light 10h 33m
Length of Day
9h 34m
Waning Crescent, 1% of the Moon is Illuminated
Dec 4
Waning Crescent
Dec 5
New
Dec 13
First Quarter
Dec 21
Full
Dec 27
Last Quarter

Hourly Weather History & Observations

Time (EST) Temp. Windchill Dew Point Humidity Pressure Visibility Wind Dir Wind Speed Gust Speed Precip Events Conditions
12:52 AM 30.9 °F 25.2 °F 21.0 °F 67% 30.15 in 10.0 mi East 5.8 mph - N/A   Overcast
1:52 AM 30.9 °F 24.3 °F 21.0 °F 67% 30.13 in 10.0 mi East 6.9 mph - N/A   Overcast
2:52 AM 30.0 °F 25.2 °F 23.0 °F 75% 30.13 in 4.0 mi SSE 4.6 mph - 0.00 in Snow Light Snow
3:16 AM 28.4 °F 24.6 °F 24.8 °F 86% 30.11 in 2.0 mi SE 3.5 mph - 0.00 in Snow Light Snow
3:52 AM 28.9 °F - 26.1 °F 89% 30.12 in 2.0 mi Calm Calm - 0.01 in Snow Light Snow
4:52 AM 28.4 °F 21.2 °F 26.6 °F 93% 30.08 in 1.5 mi East 6.9 mph - N/A Snow Light Snow
5:47 AM 28.4 °F 23.3 °F 26.6 °F 93% 30.06 in 1.5 mi ESE 4.6 mph - 0.00 in Snow Light Snow
5:48 AM 28.4 °F 23.3 °F 26.6 °F 93% 30.06 in 4.0 mi ESE 4.6 mph - 0.00 in Snow Light Snow
5:52 AM 28.9 °F 23.9 °F 27.0 °F 92% 30.07 in 4.0 mi ESE 4.6 mph - 0.00 in   Overcast
6:12 AM 28.4 °F 20.4 °F 26.6 °F 93% 30.04 in 1.5 mi ESE 8.1 mph - 0.01 in Snow Light Snow
6:52 AM 28.9 °F 23.9 °F 27.0 °F 92% 30.05 in 1.8 mi ESE 4.6 mph - 0.02 in Snow Light Snow
7:52 AM 28.9 °F 21.1 °F 27.0 °F 92% 30.02 in 2.5 mi ESE 8.1 mph - 0.01 in Snow Light Snow
8:52 AM 30.0 °F 22.4 °F 28.0 °F 92% 30.00 in 2.0 mi East 8.1 mph - 0.00 in Snow Light Snow
9:22 AM 30.2 °F 21.9 °F 28.4 °F 93% 29.97 in 1.5 mi ESE 9.2 mph - 0.00 in Snow Light Snow
9:52 AM 30.0 °F 23.2 °F 28.0 °F 92% 29.99 in 1.0 mi East 6.9 mph - 0.01 in Snow Light Snow
10:52 AM 30.0 °F 22.4 °F 28.0 °F 92% 29.98 in 1.0 mi East 8.1 mph - 0.03 in Snow Light Snow
10:59 AM 30.2 °F 22.6 °F 28.4 °F 93% 29.95 in 0.5 mi East 8.1 mph - 0.01 in Fog , Snow Snow
11:52 AM 30.9 °F 22.8 °F 28.9 °F 92% 29.94 in 0.8 mi ENE 9.2 mph - 0.05 in Snow Light Snow
12:14 PM 30.2 °F 21.3 °F 28.4 °F 93% 29.91 in 0.8 mi NE 10.4 mph - 0.01 in Snow Light Snow
12:52 PM 30.0 °F 20.0 °F 28.0 °F 92% 29.92 in 0.8 mi NE 12.7 mph - 0.02 in Snow Light Snow
1:52 PM 30.0 °F 20.0 °F 28.0 °F 92% 29.90 in 0.8 mi NE 12.7 mph - 0.03 in Fog , Snow Light Snow
2:52 PM 30.0 °F 20.5 °F 28.0 °F 92% 29.91 in 1.0 mi NNE 11.5 mph - 0.00 in Snow Light Snow
3:07 PM 30.2 °F 20.8 °F 26.6 °F 86% 29.89 in 2.5 mi NNE 11.5 mph - 0.00 in Snow Light Snow
3:42 PM 30.2 °F 20.2 °F 26.6 °F 86% 29.90 in 2.5 mi NE 12.7 mph - 0.00 in Snow Light Snow
3:52 PM 30.0 °F 20.5 °F 27.0 °F 88% 29.93 in 2.5 mi NNE 11.5 mph - 0.00 in   Overcast
4:18 PM 30.2 °F 20.8 °F 26.6 °F 86% 29.92 in 1.5 mi NNE 11.5 mph - 0.00 in Snow Light Snow
4:37 PM 30.2 °F 20.2 °F 26.6 °F 86% 29.93 in 0.5 mi North 12.7 mph - 0.01 in Fog , Snow Snow
4:52 PM 30.0 °F 19.5 °F 27.0 °F 88% 29.96 in 0.5 mi NNE 13.8 mph - 0.02 in Fog , Snow Snow
5:31 PM 28.4 °F 18.0 °F 26.6 °F 93% 29.96 in 0.5 mi NNE 12.7 mph - 0.00 in Snow Light Snow
5:52 PM 28.9 °F 20.4 °F 26.1 °F 89% 29.99 in 0.5 mi North 9.2 mph - 0.00 in Snow Light Snow
6:01 PM 28.4 °F 21.2 °F 26.6 °F 93% 29.97 in 0.5 mi North 6.9 mph - 0.00 in Snow Light Snow
6:09 PM 28.4 °F 19.1 °F 26.6 °F 93% 29.98 in 0.5 mi North 10.4 mph - 0.01 in Snow Light Snow
6:21 PM 28.4 °F 18.5 °F 26.6 °F 93% 29.99 in 0.5 mi North 11.5 mph - 0.01 in Snow Light Snow
6:24 PM 28.4 °F 19.1 °F 26.6 °F 93% 29.99 in 2.0 mi North 10.4 mph - 0.01 in Snow Light Snow
6:52 PM 28.0 °F 17.5 °F 25.0 °F 88% 30.02 in 2.0 mi North 12.7 mph - 0.01 in Snow Light Snow
7:10 PM 28.4 °F 18.5 °F 26.6 °F 93% 30.01 in 2.0 mi North 11.5 mph - 0.00 in Snow Light Snow
7:15 PM 28.4 °F 18.0 °F 26.6 °F 93% 30.02 in 2.0 mi NNW 12.7 mph - 0.00 in Snow Light Snow
7:22 PM 28.4 °F 19.1 °F 26.6 °F 93% 30.02 in 2.0 mi North 10.4 mph - 0.00 in Snow Light Snow
7:52 PM 28.0 °F 18.6 °F 25.0 °F 88% 30.05 in 2.0 mi North 10.4 mph - 0.00 in Snow Light Snow
8:11 PM 28.4 °F 19.1 °F 24.8 °F 86% 30.04 in 2.0 mi NNW 10.4 mph - 0.00 in Snow Light Snow
8:24 PM 28.4 °F 19.7 °F 24.8 °F 86% 30.04 in 2.0 mi NNW 9.2 mph - 0.00 in Snow Light Snow
8:52 PM 28.0 °F 18.6 °F 25.0 °F 88% 30.07 in 2.0 mi NNW 10.4 mph - 0.00 in Snow Light Snow
9:05 PM 26.6 °F 16.8 °F 24.8 °F 93% 30.05 in 2.0 mi NNW 10.4 mph - 0.00 in   Overcast
9:14 PM 26.6 °F 16.8 °F 24.8 °F 93% 30.06 in 6.0 mi NW 10.4 mph - 0.00 in   Overcast
9:30 PM 26.6 °F 17.5 °F 24.8 °F 93% 30.07 in 5.0 mi NNW 9.2 mph - 0.00 in   Overcast
9:45 PM 26.6 °F 17.5 °F 24.8 °F 93% 30.07 in 5.0 mi NW 9.2 mph - 0.00 in   Overcast
9:52 PM 27.0 °F 17.3 °F 24.1 °F 89% 30.10 in 6.0 mi NW 10.4 mph - 0.00 in   Overcast
10:52 PM 27.0 °F 17.3 °F 24.1 °F 89% 30.11 in 4.0 mi NW 10.4 mph - 0.00 in Snow Light Snow
11:52 PM 26.1 °F 16.8 °F 23.0 °F 88% 30.12 in 6.0 mi NW 9.2 mph - 0.00 in Snow Light Snow